Weather History for PAPH - November, 2014

Change the Weather History Date:

Thursday, November 20, 2014

  Actual Average Record
Temperature  
Mean Temperature 40 °F -  
Max Temperature 42 °F 37 °F 51 °F (2003)
Min Temperature 37 °F 28 °F 3 °F (2005)
Degree Days  
Heating Degree Days 26    
Moisture  
Dew Point 32 °F    
Average Humidity 72    
Maximum Humidity 81    
Minimum Humidity 57    
Precipitation  
Precipitation 0.04 in - - ()
Sea Level Pressure  
Sea Level Pressure 28.63 in    
Wind  
Wind Speed 17 mph (NE)    
Max Wind Speed 24 mph    
Max Gust Speed 40 mph    
Visibility 10 miles    
Events      
Averages and records for this station are not official NWS values.
T = Trace of Precipitation, MM = Missing Value Source: NWS Daily Summary

Daily Weather History Graph

Daily Weather History Graph

Search for Another Location

Airport or City:

Trip Planner

Search our weather history database for the weather conditions in past years. The results will help you decide how hot, cold, wet, or windy it might be!

Date:

Astronomy

Nov. 20, 2014 Rise Set
Actual Time 9:26 AM AKST 5:13 PM AKST
Civil Twilight 8:41 AM AKST 5:57 PM AKST
Nautical Twilight 7:54 AM AKST 6:45 PM AKST
Astronomical Twilight 7:08 AM AKST 7:30 PM AKST
Moon 7:09 AM AKST (11/20) 4:45 PM AKST (11/20)
Length of Visible Light 9h 15m
Length of Day
7h 46m
Waning Crescent, 3% of the Moon is Illuminated
Nov 20
Waning Crescent
Nov 22
New
Nov 29
First Quarter
Dec 6
Full
Dec 14
Last Quarter

Hourly Weather History & Observations

Time (AKST) Temp. Windchill Dew Point Humidity Pressure Visibility Wind Dir Wind Speed Gust Speed Precip Events Conditions
12:16 AM 42.8 °F 36.2 °F 28.4 °F 57% 29.06 in 10.0 mi ENE 12.7 mph - N/A   Mostly Cloudy
12:36 AM 41.0 °F 32.5 °F 28.4 °F 61% 29.05 in 10.0 mi ENE 17.3 mph 21.9 mph N/A   Mostly Cloudy
12:56 AM 39.2 °F 30.2 °F 30.2 °F 70% 29.04 in 10.0 mi East 17.3 mph 23.0 mph N/A   Mostly Cloudy
1:16 AM 39.2 °F 30.8 °F 28.4 °F 65% 29.03 in 10.0 mi East 15.0 mph - N/A   Mostly Cloudy
1:36 AM 39.2 °F 31.2 °F 28.4 °F 65% 29.01 in 10.0 mi East 13.8 mph - N/A   Mostly Cloudy
1:56 AM 39.2 °F 32.0 °F 28.4 °F 65% 29.00 in 10.0 mi ENE 11.5 mph - N/A   Mostly Cloudy
2:16 AM 39.2 °F 32.5 °F 28.4 °F 65% 28.97 in 10.0 mi NE 10.4 mph - N/A   Overcast
2:36 AM 39.2 °F 29.0 °F 28.4 °F 65% 28.96 in 10.0 mi ENE 21.9 mph 26.5 mph N/A   Overcast
2:56 AM 39.2 °F 29.6 °F 30.2 °F 70% 28.96 in 10.0 mi NE 19.6 mph 24.2 mph N/A   Overcast
3:16 AM 37.4 °F 26.6 °F 28.4 °F 70% 28.93 in 10.0 mi NE 21.9 mph 26.5 mph N/A   Mostly Cloudy
3:36 AM 39.2 °F 28.7 °F 30.2 °F 70% 28.92 in 10.0 mi NE 23.0 mph 27.6 mph N/A   Mostly Cloudy
3:56 AM 39.2 °F 28.5 °F 30.2 °F 70% 28.91 in 8.0 mi ENE 24.2 mph 40.3 mph N/A   Mostly Cloudy
4:16 AM 39.2 °F 29.8 °F 30.2 °F 70% 28.90 in 10.0 mi NE 18.4 mph - N/A   Overcast
4:36 AM 39.2 °F 29.8 °F 30.2 °F 70% 28.88 in 10.0 mi NE 18.4 mph 28.8 mph N/A   Overcast
4:56 AM 39.2 °F 29.0 °F 30.2 °F 70% 28.85 in 10.0 mi NE 21.9 mph 29.9 mph N/A   Overcast
5:16 AM 39.2 °F 29.3 °F 30.2 °F 70% 28.84 in 10.0 mi NE 20.7 mph 29.9 mph N/A   Overcast
5:36 AM 39.2 °F 29.6 °F 30.2 °F 70% 28.82 in 10.0 mi NE 19.6 mph - N/A   Overcast
5:56 AM 39.2 °F 29.3 °F 30.2 °F 70% 28.80 in 10.0 mi NE 20.7 mph 25.3 mph N/A   Overcast
6:16 AM 37.4 °F 27.8 °F 30.2 °F 75% 28.80 in 10.0 mi NE 17.3 mph 21.9 mph N/A   Overcast
6:36 AM 37.4 °F 27.2 °F 30.2 °F 75% 28.78 in 10.0 mi NE 19.6 mph - N/A   Overcast
6:56 AM 39.2 °F 30.2 °F 30.2 °F 70% 28.75 in 10.0 mi NE 17.3 mph 21.9 mph N/A   Overcast
7:16 AM 39.2 °F 29.6 °F 30.2 °F 70% 28.74 in 10.0 mi NE 19.6 mph - N/A   Overcast
7:36 AM 39.2 °F 30.2 °F 30.2 °F 70% 28.73 in 10.0 mi NE 17.3 mph - N/A   Overcast
7:56 AM 39.2 °F 29.8 °F 30.2 °F 70% 28.71 in 10.0 mi NNE 18.4 mph - N/A   Mostly Cloudy
8:16 AM 39.2 °F 29.6 °F 30.2 °F 70% 28.69 in 10.0 mi NE 19.6 mph 25.3 mph N/A   Overcast
8:36 AM 39.2 °F 30.5 °F 30.2 °F 70% 28.67 in 10.0 mi NNE 16.1 mph - N/A   Overcast
8:56 AM 39.2 °F 30.5 °F 30.2 °F 70% 28.66 in 10.0 mi NE 16.1 mph 23.0 mph N/A   Overcast
9:16 AM 39.2 °F 30.5 °F 32.0 °F 75% 28.64 in 10.0 mi NNE 16.1 mph - N/A   Mostly Cloudy
9:36 AM 39.2 °F 29.6 °F 32.0 °F 75% 28.62 in 10.0 mi NNE 19.6 mph 23.0 mph N/A   Overcast
9:56 AM 39.2 °F 29.6 °F 33.8 °F 81% 28.61 in 10.0 mi NE 19.6 mph 27.6 mph N/A   Overcast
10:16 AM 41.0 °F 31.6 °F 33.8 °F 76% 28.60 in 10.0 mi NE 20.7 mph 25.3 mph N/A   Overcast
10:36 AM 41.0 °F 33.5 °F 33.8 °F 76% 28.59 in 10.0 mi NE 13.8 mph 24.2 mph N/A   Overcast
10:56 AM 41.0 °F 32.8 °F 33.8 °F 76% 28.58 in 10.0 mi NE 16.1 mph - N/A   Overcast
11:16 AM 42.8 °F 34.5 °F 33.8 °F 70% 28.56 in 10.0 mi NE 18.4 mph - N/A   Overcast
11:36 AM 42.8 °F 34.8 °F 33.8 °F 70% 28.54 in 10.0 mi NE 17.3 mph 20.7 mph N/A   Mostly Cloudy
11:56 AM 42.8 °F 33.5 °F 33.8 °F 70% 28.54 in 10.0 mi NE 23.0 mph 27.6 mph N/A   Scattered Clouds
12:16 PM 42.8 °F 34.8 °F 35.6 °F 76% 28.53 in 10.0 mi ENE 17.3 mph 20.7 mph N/A   Mostly Cloudy
12:36 PM 42.8 °F 36.2 °F 33.8 °F 70% 28.53 in 10.0 mi ENE 12.7 mph 20.7 mph N/A   Partly Cloudy
12:56 PM 42.8 °F 36.2 °F 33.8 °F 70% 28.52 in 10.0 mi ENE 12.7 mph - N/A   Mostly Cloudy
1:16 PM 42.8 °F 35.4 °F 33.8 °F 70% 28.51 in 10.0 mi NE 15.0 mph - N/A   Overcast
1:36 PM 42.8 °F 35.1 °F 33.8 °F 70% 28.52 in 10.0 mi NE 16.1 mph 20.7 mph N/A   Overcast
1:56 PM 42.8 °F 35.8 °F 33.8 °F 70% 28.51 in 10.0 mi NE 13.8 mph 19.6 mph N/A   Overcast
2:16 PM 42.8 °F 35.4 °F 33.8 °F 70% 28.50 in 10.0 mi NE 15.0 mph 19.6 mph N/A   Overcast
2:36 PM 42.8 °F 35.1 °F 33.8 °F 70% 28.49 in 10.0 mi NE 16.1 mph - N/A   Overcast
2:56 PM 42.8 °F 35.1 °F 33.8 °F 70% 28.49 in 8.0 mi NNE 16.1 mph 21.9 mph N/A   Mostly Cloudy
3:16 PM 42.8 °F 36.2 °F 33.8 °F 70% 28.48 in 10.0 mi NE 12.7 mph - N/A   Overcast
3:36 PM 42.8 °F 35.1 °F 33.8 °F 70% 28.47 in 10.0 mi NE 16.1 mph 19.6 mph N/A   Overcast
3:56 PM 41.0 °F 32.5 °F 33.8 °F 76% 28.47 in 6.0 mi ENE 17.3 mph 23.0 mph N/A   Overcast
4:16 PM 41.0 °F 32.5 °F 33.8 °F 76% 28.46 in 8.0 mi NE 17.3 mph - N/A   Overcast
4:36 PM 41.0 °F 32.2 °F 33.8 °F 76% 28.46 in 10.0 mi NE 18.4 mph - N/A   Overcast
4:56 PM 41.0 °F 31.6 °F 33.8 °F 76% 28.46 in 10.0 mi NE 20.7 mph 26.5 mph N/A   Overcast
5:16 PM 41.0 °F 31.6 °F 33.8 °F 76% 28.45 in 10.0 mi NE 20.7 mph 24.2 mph N/A   Overcast
5:36 PM 41.0 °F 31.6 °F 33.8 °F 76% 28.45 in 9.0 mi NE 20.7 mph 26.5 mph N/A   Overcast
5:56 PM 41.0 °F 31.9 °F 33.8 °F 76% 28.45 in 9.0 mi ENE 19.6 mph - 0.01 in   Overcast
6:16 PM 41.0 °F 32.8 °F 33.8 °F 76% 28.46 in 9.0 mi ENE 16.1 mph - 0.01 in   Overcast
6:36 PM 41.0 °F 33.1 °F 33.8 °F 76% 28.45 in 7.0 mi ENE 15.0 mph - 0.03 in   Overcast
6:56 PM 41.0 °F 32.2 °F 33.8 °F 76% 28.44 in 10.0 mi NE 18.4 mph 21.9 mph 0.03 in   Overcast
7:16 PM 41.0 °F 31.9 °F 33.8 °F 76% 28.44 in 10.0 mi NE 19.6 mph 24.2 mph N/A   Overcast
7:36 PM 41.0 °F 32.8 °F 33.8 °F 76% 28.44 in 10.0 mi NE 16.1 mph 21.9 mph N/A   Overcast
7:56 PM 41.0 °F 31.4 °F 33.8 °F 76% 28.44 in 10.0 mi NE 21.9 mph - N/A   Overcast
8:16 PM 41.0 °F 32.5 °F 33.8 °F 76% 28.44 in 10.0 mi NE 17.3 mph 25.3 mph N/A   Overcast
8:36 PM 41.0 °F 32.2 °F 33.8 °F 76% 28.44 in 10.0 mi NE 18.4 mph 24.2 mph 0.01 in   Overcast
8:56 PM 41.0 °F 32.2 °F 33.8 °F 76% 28.44 in 10.0 mi NE 18.4 mph 23.0 mph 0.01 in   Overcast
9:16 PM 41.0 °F 31.9 °F 33.8 °F 76% 28.43 in 10.0 mi NE 19.6 mph 26.5 mph N/A   Overcast
9:36 PM 41.0 °F 32.2 °F 33.8 °F 76% 28.43 in 10.0 mi NE 18.4 mph 25.3 mph N/A   Overcast
9:56 PM 41.0 °F 32.2 °F 33.8 °F 76% 28.42 in 10.0 mi NE 18.4 mph - N/A   Overcast
10:16 PM 41.0 °F 31.9 °F 33.8 °F 76% 28.43 in 10.0 mi NE 19.6 mph 24.2 mph N/A   Overcast
10:36 PM 41.0 °F 31.6 °F 33.8 °F 76% 28.43 in 10.0 mi NE 20.7 mph 26.5 mph N/A   Overcast
10:56 PM 41.0 °F 31.9 °F 33.8 °F 76% 28.43 in 10.0 mi NE 19.6 mph 24.2 mph 0.01 in   Overcast
11:16 PM 41.0 °F 32.2 °F 33.8 °F 76% 28.42 in 10.0 mi NE 18.4 mph 24.2 mph N/A   Overcast
11:36 PM 41.0 °F 31.6 °F 33.8 °F 76% 28.42 in 10.0 mi ENE 20.7 mph - N/A   Overcast
11:56 PM 41.0 °F 31.9 °F 33.8 °F 76% 28.42 in 10.0 mi NE 19.6 mph - N/A   Overcast